Agua de Enmedio, Mexico

3:53 AM MST on February 23, 2017 (GMT -0700)
Gen Manuel Marquez De Leon

Weather History for MMLP - February, 2014

Change the Weather History Date:

Thursday, February 20, 2014

  Actual Average Record
Temperature  
Mean Temperature 72 °F -  
Max Temperature 86 °F 79 °F 91 °F (2000)
Min Temperature 57 °F 54 °F 41 °F (2012)
Cooling Degree Days 6    
Growing Degree Days 22 (Base 50)    
Moisture  
Dew Point 53 °F    
Average Humidity 61    
Maximum Humidity 94    
Minimum Humidity 16    
Precipitation  
Precipitation 0.00 in - - ()
Sea Level Pressure  
Sea Level Pressure 29.92 in    
Wind  
Wind Speed 8 mph ()    
Max Wind Speed 16 mph    
Max Gust Speed -    
Visibility 8.8 miles    
Events Fog    
Averages and records for this station are not official NWS values.
T = Trace of Precipitation, MM = Missing Value Source: Averaged Metar Reports

Daily Weather History Graph

Daily Weather History Graph

Search for Another Location

Airport or City:

Trip Planner

Search our weather history database for the weather conditions in past years. The results will help you decide how hot, cold, wet, or windy it might be!

Date:

Astronomy

Feb. 20, 2014 Rise Set
Actual Time 6:51 AM MST 6:19 PM MST
Civil Twilight 6:28 AM MST 6:42 PM MST
Nautical Twilight 6:01 AM MST 7:09 PM MST
Astronomical Twilight 5:35 AM MST 7:35 PM MST
Moon 11:35 PM MST (2/20) 10:15 AM MST (2/20)
Length of Visible Light 12h 14m
Length of Day
11h 28m
Waning Gibbous, 70% of the Moon is Illuminated
Feb 20
Waning Gibbous
Feb 22
Last Quarter
Mar 1
New
Mar 8
First Quarter
Mar 16
Full

Hourly Weather History & Observations

Time (MST) Temp. Dew Point Humidity Pressure Visibility Wind Dir Wind Speed Gust Speed Precip Events Conditions
1:50 AM 64 °F 61 °F 87% 29.87 in 2 mi South 8.9 mph - -  
4:50 AM 62 °F 56 °F 74% 29.88 in 2 mi South 4.5 mph - -  
6:03 AM 57.2 °F 55.4 °F 94% 29.91 in 10.0 mi South 10.4 mph - N/A   Partly Cloudy
6:27 AM 57.2 °F 55.4 °F 94% 29.91 in 1.0 mi South 16.1 mph - N/A   Scattered Clouds
7:20 AM 57.2 °F 55.4 °F 94% 29.93 in 0.1 mi South 12.7 mph - N/A Fog Fog
7:44 AM 57.2 °F 55.4 °F 94% 29.94 in 2.0 mi South 11.5 mph - N/A   Mostly Cloudy
7:50 AM 60 °F 57 °F 88% 29.93 in 12 mi South 6.7 mph - -   Clear
8:07 AM 59.0 °F 55.4 °F 88% 29.95 in 6.0 mi South 13.8 mph - N/A   Mostly Cloudy
8:42 AM 59.0 °F 55.4 °F 88% 29.97 in 10.0 mi SSW 9.2 mph - N/A   Partly Cloudy
9:43 AM 66.2 °F 48.2 °F 52% 29.97 in 10.0 mi SSW 4.6 mph - N/A   Clear
10:45 AM 75.2 °F 37.4 °F 25% 29.97 in 10.0 mi WSW 3.5 mph - N/A   Partly Cloudy
10:50 AM 78 °F 48 °F 25% 29.95 in 19 mi South 6.7 mph - -  
11:49 AM 82.4 °F 32.0 °F 16% 29.95 in 10.0 mi NNW 9.2 mph - N/A   Partly Cloudy
12:48 PM 77.0 °F 39.2 °F 26% 29.93 in 10.0 mi NNW 11.5 mph - N/A   Partly Cloudy
1:40 PM 78.8 °F 37.4 °F 23% 29.91 in 10.0 mi NNW 11.5 mph - N/A   Partly Cloudy
1:50 PM 83 °F 47 °F 19% 29.91 in 19 mi NNW 6.7 mph - -  
2:40 PM 78.8 °F 46.4 °F 32% 29.90 in 10.0 mi NNW 13.8 mph - N/A   Partly Cloudy
3:44 PM 80.6 °F 51.8 °F 37% 29.89 in 10.0 mi North 16.1 mph - N/A   Partly Cloudy
4:40 PM 78.8 °F 57.2 °F 47% 29.89 in 10.0 mi North 12.7 mph - N/A   Partly Cloudy
4:45 PM 80 °F 61 °F 42% 29.87 in 19 mi SE 6.7 mph - -   Clear
5:40 PM 77.0 °F 55.4 °F 47% 29.90 in 10.0 mi NNW 9.2 mph - N/A   Partly Cloudy
6:44 PM 71.6 °F 59.0 °F 64% 29.92 in 10.0 mi North 5.8 mph - N/A   Partly Cloudy
7:40 PM 69.8 °F 60.8 °F 73% 29.93 in 10.0 mi North 5.8 mph - N/A   Partly Cloudy
7:45 PM 72 °F 60 °F 58% 29.89 in 2 mi North 4.5 mph - -  
8:40 PM 68.0 °F 62.6 °F 83% 29.94 in 10.0 mi North 3.5 mph - N/A   Partly Cloudy
9:40 PM 66.2 °F 60.8 °F 83% 29.94 in 10.0 mi NW 3.5 mph - N/A   Clear
10:40 PM 60.8 °F 55.4 °F 82% 29.95 in 10.0 mi SSE 3.5 mph - N/A   Clear
10:50 PM 68 °F 64 °F 84% 29.94 in 2 mi North 2.2 mph - -